owner,sensor,date,latitude,longitude,vertical_datum,wind_speed,wind_to_direction,wind_speed_of_gust,qcFlag 
CenGOOS,ioos:station:wmo:42067:1,2017-04-01T02:40Z,30.0430,-88.6490,5.0,2.6,196.4,3.1,'1111122,1111122,1111122' 
CenGOOS,ioos:station:wmo:42067:1,2017-04-01T05:40Z,30.0430,-88.6490,5.0,1.9,183.6,2.6,'1111122,1111122,1111122' 
CenGOOS,ioos:station:wmo:42067:1,2017-04-01T08:40Z,30.0430,-88.6490,5.0,2.9,176.4,3.8,'1111122,1111122,1111122' 
CenGOOS,ioos:station:wmo:42067:1,2017-04-01T11:40Z,30.0430,-88.6490,5.0,1.1,36.4,1.7,'1111122,1111122,1111122' 
CenGOOS,ioos:station:wmo:42067:1,2017-04-01T14:40Z,30.0430,-88.6490,5.0,3.8,64.5,4.5,'1111122,1111122,1111122' 
CenGOOS,ioos:station:wmo:42067:1,2017-04-01T17:40Z,30.0430,-88.6490,5.0,5.0,97.8,5.9,'1111122,1111122,1111122' 
CenGOOS,ioos:station:wmo:42067:1,2017-04-01T20:40Z,30.0430,-88.6490,5.0,5.3,131.1,6.3,'1111122,1111122,1111122' 
CenGOOS,ioos:station:wmo:42067:1,2017-04-01T23:40Z,30.0430,-88.6490,5.0,4.4,131.2,5.2,'1111122,1111122,1111122' 
CenGOOS,ioos:station:wmo:42067:1,2017-04-02T02:40Z,30.0430,-88.6490,5.0,5.0,134.8,6.1,'1111122,1111122,1111122' 
CenGOOS,ioos:station:wmo:42067:1,2017-04-02T05:40Z,30.0430,-88.6490,5.0,6.0,132.7,6.6,'1111122,1111122,1111122' 
CenGOOS,ioos:station:wmo:42067:1,2017-04-02T08:40Z,30.0430,-88.6490,5.0,6.4,132.1,6.5,'1111122,1111122,1111122' 
CenGOOS,ioos:station:wmo:42067:1,2017-04-02T11:40Z,30.0430,-88.6490,5.0,7.3,121.1,7.5,'1111122,1111122,1111122' 
CenGOOS,ioos:station:wmo:42067:1,2017-04-02T14:40Z,30.0430,-88.6490,5.0,5.7,124.1,6.8,'1111122,1111122,1111122' 
CenGOOS,ioos:station:wmo:42067:1,2017-04-02T17:40Z,30.0430,-88.6490,5.0,8.3,114.7,9.7,'1111122,1111122,1111122' 
CenGOOS,ioos:station:wmo:42067:1,2017-04-02T20:40Z,30.0430,-88.6490,5.0,9.2,115.7,11.5,'1111122,1111122,1111122' 
CenGOOS,ioos:station:wmo:42067:1,2017-04-02T23:40Z,30.0430,-88.6490,5.0,9.1,124.3,11.3,'1111122,1111122,1111122' 
CenGOOS,ioos:station:wmo:42067:1,2017-04-03T02:40Z,30.0430,-88.6490,5.0,10.8,131.3,13.2,'1111122,1111122,1111122' 
CenGOOS,ioos:station:wmo:42067:1,2017-04-03T05:40Z,30.0430,-88.6490,5.0,11.2,140.8,14.0,'1111122,1111122,1111122' 
CenGOOS,ioos:station:wmo:42067:1,2017-04-03T08:40Z,30.0430,-88.6490,5.0,10.6,154.5,12.6,'1111122,1111122,1111122' 
CenGOOS,ioos:station:wmo:42067:1,2017-04-03T11:40Z,30.0430,-88.6490,5.0,13.3,162.8,15.8,'1111122,1111122,1111122' 
CenGOOS,ioos:station:wmo:42067:1,2017-04-03T14:40Z,30.0430,-88.6490,5.0,9.6,58.4,11.4,'1111122,1111122,1111122' 
CenGOOS,ioos:station:wmo:42067:1,2017-04-03T17:40Z,30.0430,-88.6490,5.0,4.7,121.5,6.1,'1111122,1111122,1111122' 
CenGOOS,ioos:station:wmo:42067:1,2017-04-03T20:40Z,30.0430,-88.6490,5.0,4.1,160.9,4.9,'1111122,1111122,1111122' 
CenGOOS,ioos:station:wmo:42067:1,2017-04-03T23:40Z,30.0430,-88.6490,5.0,4.5,177.1,5.4,'1111122,1111122,1111122' 
CenGOOS,ioos:station:wmo:42067:1,2017-04-04T02:40Z,30.0430,-88.6490,5.0,4.9,190.7,6.0,'1111122,1111122,1111122' 
CenGOOS,ioos:station:wmo:42067:1,2017-04-04T05:40Z,30.0430,-88.6490,5.0,5.2,169.8,6.3,'1111122,1111122,1111122' 
CenGOOS,ioos:station:wmo:42067:1,2017-04-04T11:40Z,30.0430,-88.6490,5.0,3.7,306.0,4.8,'1111122,1111122,1111122' 
CenGOOS,ioos:station:wmo:42067:1,2017-04-04T14:40Z,30.0430,-88.6490,5.0,2.8,40.0,3.5,'1111122,1111122,1111122' 
CenGOOS,ioos:station:wmo:42067:1,2017-04-04T17:40Z,30.0430,-88.6490,5.0,5.5,106.3,6.6,'1111122,1111122,1111122' 
CenGOOS,ioos:station:wmo:42067:1,2017-04-04T20:40Z,30.0430,-88.6490,5.0,5.2,118.1,5.9,'1111122,1111122,1111122' 
CenGOOS,ioos:station:wmo:42067:1,2017-04-04T23:40Z,30.0430,-88.6490,5.0,8.0,125.5,9.3,'1111122,1111122,1111122' 
CenGOOS,ioos:station:wmo:42067:1,2017-04-05T02:40Z,30.0430,-88.6490,5.0,8.4,128.7,10.0,'1111122,1111122,1111122' 
CenGOOS,ioos:station:wmo:42067:1,2017-04-05T05:40Z,30.0430,-88.6490,5.0,6.8,152.5,8.0,'1111122,1111122,1111122' 
CenGOOS,ioos:station:wmo:42067:1,2017-04-05T08:40Z,30.0430,-88.6490,5.0,8.7,155.4,11.0,'1111122,1111122,1111122' 
CenGOOS,ioos:station:wmo:42067:1,2017-04-05T11:40Z,30.0430,-88.6490,5.0,8.0,164.3,9.6,'1111122,1111122,1111122' 
CenGOOS,ioos:station:wmo:42067:1,2017-04-05T14:40Z,30.0430,-88.6490,5.0,8.7,172.9,10.8,'1111122,1111122,1111122' 
CenGOOS,ioos:station:wmo:42067:1,2017-04-05T17:40Z,30.0430,-88.6490,5.0,6.7,171.8,8.1,'1111122,1111122,1111122' 
CenGOOS,ioos:station:wmo:42067:1,2017-04-05T20:40Z,30.0430,-88.6490,5.0,3.8,189.6,4.4,'1111122,1111122,1111122' 
CenGOOS,ioos:station:wmo:42067:1,2017-04-05T23:40Z,30.0430,-88.6490,5.0,8.3,255.1,9.9,'1111122,1111122,1111122' 
CenGOOS,ioos:station:wmo:42067:1,2017-04-06T02:40Z,30.0430,-88.6490,5.0,14.2,305.5,17.0,'1111122,1111122,1111122' 
CenGOOS,ioos:station:wmo:42067:1,2017-04-06T08:40Z,30.0430,-88.6490,5.0,13.0,346.7,17.2,'1111122,1111122,1111122' 
CenGOOS,ioos:station:wmo:42067:1,2017-04-06T11:40Z,30.0430,-88.6490,5.0,11.5,338.3,14.2,'1111122,1111122,1111122' 
CenGOOS,ioos:station:wmo:42067:1,2017-04-06T14:40Z,30.0430,-88.6490,5.0,10.5,332.5,13.8,'1111122,1111122,1111122' 
CenGOOS,ioos:station:wmo:42067:1,2017-04-06T17:40Z,30.0430,-88.6490,5.0,8.9,317.1,11.7,'1111122,1111122,1111122' 
CenGOOS,ioos:station:wmo:42067:1,2017-04-06T20:40Z,30.0430,-88.6490,5.0,8.5,334.6,11.4,'1111122,1111122,1111122' 
CenGOOS,ioos:station:wmo:42067:1,2017-04-06T23:40Z,30.0430,-88.6490,5.0,9.1,347.2,11.5,'1111122,1111122,1111122' 
CenGOOS,ioos:station:wmo:42067:1,2017-04-07T02:40Z,30.0430,-88.6490,5.0,10.5,5.0,12.3,'1111122,1111122,1111122' 
CenGOOS,ioos:station:wmo:42067:1,2017-04-07T05:40Z,30.0430,-88.6490,5.0,6.4,17.8,8.1,'1111122,1111122,1111122' 
CenGOOS,ioos:station:wmo:42067:1,2017-04-07T08:40Z,30.0430,-88.6490,5.0,3.5,327.1,5.4,'1111122,1111122,1111122' 
CenGOOS,ioos:station:wmo:42067:1,2017-04-07T11:40Z,30.0430,-88.6490,5.0,5.8,289.6,8.1,'1111122,1111122,1111122' 
CenGOOS,ioos:station:wmo:42067:1,2017-04-07T14:40Z,30.0430,-88.6490,5.0,6.6,33.2,7.9,'1111122,1111122,1111122' 
CenGOOS,ioos:station:wmo:42067:1,2017-04-07T17:40Z,30.0430,-88.6490,5.0,1.6,295.4,3.4,'1111122,1111122,1111122' 
CenGOOS,ioos:station:wmo:42067:1,2017-04-07T20:40Z,30.0430,-88.6490,5.0,6.0,232.5,7.3,'1111122,1111122,1111122' 
CenGOOS,ioos:station:wmo:42067:1,2017-04-07T23:40Z,30.0430,-88.6490,5.0,4.6,226.4,6.5,'1111122,1111122,1111122' 
CenGOOS,ioos:station:wmo:42067:1,2017-04-08T02:40Z,30.0430,-88.6490,5.0,5.4,16.9,6.6,'1111122,1111122,1111122' 
CenGOOS,ioos:station:wmo:42067:1,2017-04-08T05:40Z,30.0430,-88.6490,5.0,6.7,25.2,8.3,'1111122,1111122,1111122' 
CenGOOS,ioos:station:wmo:42067:1,2017-04-08T08:40Z,30.0430,-88.6490,5.0,7.7,41.6,9.1,'1111122,1111122,1111122' 
CenGOOS,ioos:station:wmo:42067:1,2017-04-08T11:40Z,30.0430,-88.6490,5.0,5.7,60.9,6.9,'1111122,1111122,1111122' 
CenGOOS,ioos:station:wmo:42067:1,2017-04-08T14:40Z,30.0430,-88.6490,5.0,3.6,88.1,4.7,'1111122,1111122,1111122' 
CenGOOS,ioos:station:wmo:42067:1,2017-04-08T17:40Z,30.0430,-88.6490,5.0,2.1,117.9,3.5,'1111122,1111122,1111122' 
CenGOOS,ioos:station:wmo:42067:1,2017-04-08T20:40Z,30.0430,-88.6490,5.0,3.5,141.0,4.5,'1111122,1111122,1111122' 
CenGOOS,ioos:station:wmo:42067:1,2017-04-08T23:40Z,30.0430,-88.6490,5.0,3.4,159.8,4.6,'1111122,1111122,1111122' 
CenGOOS,ioos:station:wmo:42067:1,2017-04-09T02:40Z,30.0430,-88.6490,5.0,3.4,157.7,4.4,'1111122,1111122,1111122' 
CenGOOS,ioos:station:wmo:42067:1,2017-04-09T05:40Z,30.0430,-88.6490,5.0,4.2,161.0,5.2,'1111122,1111122,1111122' 
CenGOOS,ioos:station:wmo:42067:1,2017-04-09T08:40Z,30.0430,-88.6490,5.0,4.8,162.2,6.0,'1111122,1111122,1111122' 
CenGOOS,ioos:station:wmo:42067:1,2017-04-09T11:40Z,30.0430,-88.6490,5.0,4.0,137.5,5.5,'1111122,1111122,1111122' 
CenGOOS,ioos:station:wmo:42067:1,2017-04-09T14:40Z,30.0430,-88.6490,5.0,6.4,121.4,8.4,'1111122,1111122,1111122' 
CenGOOS,ioos:station:wmo:42067:1,2017-04-09T17:40Z,30.0430,-88.6490,5.0,6.7,133.0,8.2,'1111122,1111122,1111122' 
CenGOOS,ioos:station:wmo:42067:1,2017-04-09T20:40Z,30.0430,-88.6490,5.0,5.8,130.6,7.3,'1111122,1111122,1111122' 
CenGOOS,ioos:station:wmo:42067:1,2017-04-09T23:40Z,30.0430,-88.6490,5.0,6.1,132.7,7.6,'1111122,1111122,1111122' 
CenGOOS,ioos:station:wmo:42067:1,2017-04-10T02:40Z,30.0430,-88.6490,5.0,7.3,137.2,9.1,'1111122,1111122,1111122' 
CenGOOS,ioos:station:wmo:42067:1,2017-04-10T05:40Z,30.0430,-88.6490,5.0,6.6,137.0,8.5,'1111122,1111122,1111122' 
CenGOOS,ioos:station:wmo:42067:1,2017-04-10T08:40Z,30.0430,-88.6490,5.0,7.3,138.2,8.7,'1111122,1111122,1111122' 
CenGOOS,ioos:station:wmo:42067:1,2017-04-10T11:40Z,30.0430,-88.6490,5.0,6.5,140.5,7.7,'1111122,1111122,1111122' 
CenGOOS,ioos:station:wmo:42067:1,2017-04-10T14:40Z,30.0430,-88.6490,5.0,5.3,138.9,6.4,'1111122,1111122,1111122' 
CenGOOS,ioos:station:wmo:42067:1,2017-04-10T17:40Z,30.0430,-88.6490,5.0,4.7,118.3,5.4,'1111122,1111122,1111122' 
CenGOOS,ioos:station:wmo:42067:1,2017-04-10T20:40Z,30.0430,-88.6490,5.0,5.2,102.6,6.2,'1111122,1111122,1111122' 
CenGOOS,ioos:station:wmo:42067:1,2017-04-10T23:40Z,30.0430,-88.6490,5.0,3.4,95.3,4.2,'1111122,1111122,1111122' 
CenGOOS,ioos:station:wmo:42067:1,2017-04-11T02:40Z,30.0430,-88.6490,5.0,7.4,121.7,8.4,'1111122,1111122,1111122' 
CenGOOS,ioos:station:wmo:42067:1,2017-04-11T05:40Z,30.0430,-88.6490,5.0,5.1,127.9,5.8,'1111122,1111122,1111122' 
CenGOOS,ioos:station:wmo:42067:1,2017-04-11T08:40Z,30.0430,-88.6490,5.0,2.2,159.8,2.8,'1111122,1111122,1111122' 
CenGOOS,ioos:station:wmo:42067:1,2017-04-11T11:40Z,30.0430,-88.6490,5.0,5.0,112.1,5.8,'1111122,1111122,1111122' 
CenGOOS,ioos:station:wmo:42067:1,2017-04-11T14:40Z,30.0430,-88.6490,5.0,4.7,110.5,5.9,'1111122,1111122,1111122' 
CenGOOS,ioos:station:wmo:42067:1,2017-04-11T17:40Z,30.0430,-88.6490,5.0,5.6,110.8,6.6,'1111122,1111122,1111122' 
CenGOOS,ioos:station:wmo:42067:1,2017-04-11T20:40Z,30.0430,-88.6490,5.0,4.5,108.1,5.2,'1111122,1111122,1111122' 
CenGOOS,ioos:station:wmo:42067:1,2017-04-11T23:40Z,30.0430,-88.6490,5.0,4.4,126.4,5.3,'1111122,1111122,1111122' 
CenGOOS,ioos:station:wmo:42067:1,2017-04-12T02:40Z,30.0430,-88.6490,5.0,3.1,138.0,3.9,'1111122,1111122,1111122' 
CenGOOS,ioos:station:wmo:42067:1,2017-04-12T05:40Z,30.0430,-88.6490,5.0,2.8,140.1,3.6,'1111122,1111122,1111122' 
CenGOOS,ioos:station:wmo:42067:1,2017-04-12T08:40Z,30.0430,-88.6490,5.0,3.3,99.9,3.8,'1111122,1111122,1111122' 
CenGOOS,ioos:station:wmo:42067:1,2017-04-12T11:40Z,30.0430,-88.6490,5.0,4.6,51.8,5.5,'1111122,1111122,1111122' 
CenGOOS,ioos:station:wmo:42067:1,2017-04-12T14:40Z,30.0430,-88.6490,5.0,3.4,142.3,4.1,'1111122,1111122,1111122' 
CenGOOS,ioos:station:wmo:42067:1,2017-04-12T17:40Z,30.0430,-88.6490,5.0,2.4,108.9,3.0,'1111122,1111122,1111122' 
CenGOOS,ioos:station:wmo:42067:1,2017-04-12T20:40Z,30.0430,-88.6490,5.0,2.4,94.6,3.2,'1111122,1111122,1111122' 
CenGOOS,ioos:station:wmo:42067:1,2017-04-12T23:40Z,30.0430,-88.6490,5.0,2.2,90.2,2.8,'1111122,1111122,1111122' 
CenGOOS,ioos:station:wmo:42067:1,2017-04-13T02:40Z,30.0430,-88.6490,5.0,1.4,125.3,2.0,'1111122,1111122,1111122' 
CenGOOS,ioos:station:wmo:42067:1,2017-04-13T05:40Z,30.0430,-88.6490,5.0,1.6,37.7,1.9,'1111122,1111122,1111122' 
CenGOOS,ioos:station:wmo:42067:1,2017-04-13T08:40Z,30.0430,-88.6490,5.0,2.7,65.3,3.2,'1111122,1111122,1111122' 
CenGOOS,ioos:station:wmo:42067:1,2017-04-13T11:40Z,30.0430,-88.6490,5.0,5.3,49.0,6.0,'1111122,1111122,1111122' 
CenGOOS,ioos:station:wmo:42067:1,2017-04-13T14:40Z,30.0430,-88.6490,5.0,6.5,71.4,7.7,'1111122,1111122,1111122' 
CenGOOS,ioos:station:wmo:42067:1,2017-04-13T17:40Z,30.0430,-88.6490,5.0,5.5,93.9,6.5,'1111122,1111122,1111122' 
CenGOOS,ioos:station:wmo:42067:1,2017-04-13T20:40Z,30.0430,-88.6490,5.0,5.3,121.1,6.1,'1111122,1111122,1111122' 
CenGOOS,ioos:station:wmo:42067:1,2017-04-13T23:40Z,30.0430,-88.6490,5.0,4.0,135.4,4.5,'1111122,1111122,1111122' 
CenGOOS,ioos:station:wmo:42067:1,2017-04-14T02:40Z,30.0430,-88.6490,5.0,2.5,127.3,3.0,'1111122,1111122,1111122' 
CenGOOS,ioos:station:wmo:42067:1,2017-04-14T05:40Z,30.0430,-88.6490,5.0,5.3,133.6,6.7,'1111122,1111122,1111122' 
CenGOOS,ioos:station:wmo:42067:1,2017-04-14T08:40Z,30.0430,-88.6490,5.0,2.9,67.5,3.9,'1111122,1111122,1111122' 
CenGOOS,ioos:station:wmo:42067:1,2017-04-14T11:40Z,30.0430,-88.6490,5.0,4.7,75.9,5.4,'1111122,1111122,1111122' 
CenGOOS,ioos:station:wmo:42067:1,2017-04-14T14:40Z,30.0430,-88.6490,5.0,8.3,97.9,10.1,'1111122,1111122,1111122' 
CenGOOS,ioos:station:wmo:42067:1,2017-04-14T17:40Z,30.0430,-88.6490,5.0,8.7,102.0,10.6,'1111122,1111122,1111122' 
CenGOOS,ioos:station:wmo:42067:1,2017-04-14T20:40Z,30.0430,-88.6490,5.0,8.3,119.0,9.8,'1111122,1111122,1111122' 
CenGOOS,ioos:station:wmo:42067:1,2017-04-14T23:40Z,30.0430,-88.6490,5.0,7.5,108.2,8.8,'1111122,1111122,1111122' 
CenGOOS,ioos:station:wmo:42067:1,2017-04-15T02:40Z,30.0430,-88.6490,5.0,7.0,116.0,8.5,'1111122,1111122,1111122' 
CenGOOS,ioos:station:wmo:42067:1,2017-04-15T05:40Z,30.0430,-88.6490,5.0,6.7,126.7,8.0,'1111122,1111122,1111122' 
CenGOOS,ioos:station:wmo:42067:1,2017-04-15T08:40Z,30.0430,-88.6490,5.0,6.6,139.8,7.7,'1111122,1111122,1111122' 
CenGOOS,ioos:station:wmo:42067:1,2017-04-15T11:40Z,30.0430,-88.6490,5.0,6.6,110.6,7.9,'1111122,1111122,1111122' 
CenGOOS,ioos:station:wmo:42067:1,2017-04-15T14:40Z,30.0430,-88.6490,5.0,9.5,118.3,11.6,'1111122,1111122,1111122' 
CenGOOS,ioos:station:wmo:42067:1,2017-04-15T17:40Z,30.0430,-88.6490,5.0,7.8,125.7,9.3,'1111122,1111122,1111122' 
CenGOOS,ioos:station:wmo:42067:1,2017-04-15T20:40Z,30.0430,-88.6490,5.0,6.8,125.7,8.4,'1111122,1111122,1111122' 
CenGOOS,ioos:station:wmo:42067:1,2017-04-15T23:40Z,30.0430,-88.6490,5.0,7.4,120.0,8.6,'1111122,1111122,1111122' 
CenGOOS,ioos:station:wmo:42067:1,2017-04-16T02:40Z,30.0430,-88.6490,5.0,7.2,122.3,8.6,'1111122,1111122,1111122' 
CenGOOS,ioos:station:wmo:42067:1,2017-04-16T05:40Z,30.0430,-88.6490,5.0,6.9,131.3,8.3,'1111122,1111122,1111122' 
CenGOOS,ioos:station:wmo:42067:1,2017-04-16T08:40Z,30.0430,-88.6490,5.0,5.7,127.7,6.6,'1111122,1111122,1111122' 
CenGOOS,ioos:station:wmo:42067:1,2017-04-16T11:40Z,30.0430,-88.6490,5.0,7.4,111.6,8.6,'1111122,1111122,1111122' 
CenGOOS,ioos:station:wmo:42067:1,2017-04-16T14:40Z,30.0430,-88.6490,5.0,6.7,114.2,7.8,'1111122,1111122,1111122' 
CenGOOS,ioos:station:wmo:42067:1,2017-04-16T17:40Z,30.0430,-88.6490,5.0,6.2,112.5,7.1,'1111122,1111122,1111122' 
CenGOOS,ioos:station:wmo:42067:1,2017-04-16T20:40Z,30.0430,-88.6490,5.0,6.7,120.5,7.8,'1111122,1111122,1111122' 
CenGOOS,ioos:station:wmo:42067:1,2017-04-16T23:40Z,30.0430,-88.6490,5.0,4.8,127.8,6.1,'1111122,1111122,1111122' 
CenGOOS,ioos:station:wmo:42067:1,2017-04-17T02:40Z,30.0430,-88.6490,5.0,5.6,127.8,7.0,'1111122,1111122,1111122' 
CenGOOS,ioos:station:wmo:42067:1,2017-04-17T05:40Z,30.0430,-88.6490,5.0,6.0,138.3,7.0,'1111122,1111122,1111122' 
CenGOOS,ioos:station:wmo:42067:1,2017-04-17T08:40Z,30.0430,-88.6490,5.0,5.3,143.8,6.5,'1111122,1111122,1111122' 
CenGOOS,ioos:station:wmo:42067:1,2017-04-17T11:40Z,30.0430,-88.6490,5.0,2.8,139.2,3.6,'1111122,1111122,1111122' 
CenGOOS,ioos:station:wmo:42067:1,2017-04-17T14:40Z,30.0430,-88.6490,5.0,4.4,112.4,5.4,'1111122,1111122,1111122' 
CenGOOS,ioos:station:wmo:42067:1,2017-04-17T17:40Z,30.0430,-88.6490,5.0,6.5,128.4,7.6,'1111122,1111122,1111122' 
CenGOOS,ioos:station:wmo:42067:1,2017-04-17T20:40Z,30.0430,-88.6490,5.0,6.6,144.4,7.8,'1111122,1111122,1111122' 
CenGOOS,ioos:station:wmo:42067:1,2017-04-17T23:40Z,30.0430,-88.6490,5.0,3.9,142.0,4.8,'1111122,1111122,1111122' 
CenGOOS,ioos:station:wmo:42067:1,2017-04-18T02:40Z,30.0430,-88.6490,5.0,3.8,136.6,4.9,'1111122,1111122,1111122' 
CenGOOS,ioos:station:wmo:42067:1,2017-04-18T05:40Z,30.0430,-88.6490,5.0,2.7,149.6,3.6,'1111122,1111122,1111122' 
CenGOOS,ioos:station:wmo:42067:1,2017-04-18T08:40Z,30.0430,-88.6490,5.0,4.1,166.2,5.0,'1111122,1111122,1111122' 
CenGOOS,ioos:station:wmo:42067:1,2017-04-18T11:40Z,30.0430,-88.6490,5.0,3.9,144.5,4.8,'1111122,1111122,1111122' 
CenGOOS,ioos:station:wmo:42067:1,2017-04-18T14:40Z,30.0430,-88.6490,5.0,3.9,96.8,4.7,'1111122,1111122,1111122' 
CenGOOS,ioos:station:wmo:42067:1,2017-04-18T17:40Z,30.0430,-88.6490,5.0,6.3,114.1,7.4,'1111122,1111122,1111122' 
CenGOOS,ioos:station:wmo:42067:1,2017-04-18T20:40Z,30.0430,-88.6490,5.0,5.4,130.4,6.5,'1111122,1111122,1111122' 
CenGOOS,ioos:station:wmo:42067:1,2017-04-18T23:40Z,30.0430,-88.6490,5.0,4.5,112.2,5.3,'1111122,1111122,1111122' 
CenGOOS,ioos:station:wmo:42067:1,2017-04-19T02:40Z,30.0430,-88.6490,5.0,4.5,100.8,5.3,'1111122,1111122,1111122' 
CenGOOS,ioos:station:wmo:42067:1,2017-04-19T05:40Z,30.0430,-88.6490,5.0,3.4,117.6,4.5,'1111122,1111122,1111122' 
CenGOOS,ioos:station:wmo:42067:1,2017-04-19T08:40Z,30.0430,-88.6490,5.0,4.4,115.9,5.8,'1111122,1111122,1111122' 
CenGOOS,ioos:station:wmo:42067:1,2017-04-19T11:40Z,30.0430,-88.6490,5.0,4.9,89.1,6.0,'1111122,1111122,1111122' 
CenGOOS,ioos:station:wmo:42067:1,2017-04-19T14:40Z,30.0430,-88.6490,5.0,8.0,111.2,9.0,'1111122,1111122,1111122' 
CenGOOS,ioos:station:wmo:42067:1,2017-04-19T20:40Z,30.0430,-88.6490,5.0,6.2,106.5,7.3,'1111122,1111122,1111122' 
CenGOOS,ioos:station:wmo:42067:1,2017-04-19T23:40Z,30.0430,-88.6490,5.0,6.6,109.1,8.0,'1111122,1111122,1111122' 
CenGOOS,ioos:station:wmo:42067:1,2017-04-20T02:40Z,30.0430,-88.6490,5.0,5.5,133.3,6.5,'1111122,1111122,1111122' 
CenGOOS,ioos:station:wmo:42067:1,2017-04-20T05:40Z,30.0430,-88.6490,5.0,5.8,131.6,7.3,'1111122,1111122,1111122' 
CenGOOS,ioos:station:wmo:42067:1,2017-04-20T08:40Z,30.0430,-88.6490,5.0,4.9,133.7,6.0,'1111122,1111122,1111122' 
CenGOOS,ioos:station:wmo:42067:1,2017-04-20T11:40Z,30.0430,-88.6490,5.0,3.4,107.4,4.0,'1111122,1111122,1111122' 
CenGOOS,ioos:station:wmo:42067:1,2017-04-20T14:40Z,30.0430,-88.6490,5.0,7.5,118.9,8.6,'1111122,1111122,1111122' 
CenGOOS,ioos:station:wmo:42067:1,2017-04-20T17:40Z,30.0430,-88.6490,5.0,5.7,113.5,7.3,'1111122,1111122,1111122' 
CenGOOS,ioos:station:wmo:42067:1,2017-04-20T20:40Z,30.0430,-88.6490,5.0,2.6,121.4,3.7,'1111122,1111122,1111122' 
CenGOOS,ioos:station:wmo:42067:1,2017-04-20T23:40Z,30.0430,-88.6490,5.0,2.6,122.4,3.4,'1111122,1111122,1111122' 
CenGOOS,ioos:station:wmo:42067:1,2017-04-21T02:40Z,30.0430,-88.6490,5.0,3.7,158.4,4.8,'1111122,1111122,1111122' 
CenGOOS,ioos:station:wmo:42067:1,2017-04-21T05:40Z,30.0430,-88.6490,5.0,3.3,119.7,4.5,'1111122,1111122,1111122' 
CenGOOS,ioos:station:wmo:42067:1,2017-04-21T08:40Z,30.0430,-88.6490,5.0,2.5,154.1,3.5,'1111122,1111122,1111122' 
CenGOOS,ioos:station:wmo:42067:1,2017-04-21T11:40Z,30.0430,-88.6490,5.0,3.3,133.0,4.7,'1111122,1111122,1111122' 
CenGOOS,ioos:station:wmo:42067:1,2017-04-21T17:40Z,30.0430,-88.6490,5.0,4.8,129.4,6.8,'1111122,1111122,1111122' 
CenGOOS,ioos:station:wmo:42067:1,2017-04-21T20:40Z,30.0430,-88.6490,5.0,4.6,141.1,5.6,'1111122,1111122,1111122' 
CenGOOS,ioos:station:wmo:42067:1,2017-04-21T23:40Z,30.0430,-88.6490,5.0,2.2,144.5,3.5,'1111122,1111122,1111122' 
CenGOOS,ioos:station:wmo:42067:1,2017-04-22T02:40Z,30.0430,-88.6490,5.0,4.6,135.0,6.1,'1111122,1111122,1111122' 
CenGOOS,ioos:station:wmo:42067:1,2017-04-22T08:40Z,30.0430,-88.6490,5.0,5.3,167.8,6.8,'1111122,1111122,1111122' 
CenGOOS,ioos:station:wmo:42067:1,2017-04-22T11:40Z,30.0430,-88.6490,5.0,5.7,188.9,7.2,'1111122,1111122,1111122' 
CenGOOS,ioos:station:wmo:42067:1,2017-04-22T14:40Z,30.0430,-88.6490,5.0,3.4,208.8,4.6,'1111122,1111122,1111122' 
CenGOOS,ioos:station:wmo:42067:1,2017-04-22T17:40Z,30.0430,-88.6490,5.0,2.8,190.0,4.0,'1111122,1111122,1111122' 
CenGOOS,ioos:station:wmo:42067:1,2017-04-22T20:40Z,30.0430,-88.6490,5.0,4.1,171.5,5.5,'1111122,1111122,1111122' 
CenGOOS,ioos:station:wmo:42067:1,2017-04-22T23:40Z,30.0430,-88.6490,5.0,6.9,167.7,8.2,'1111122,1111122,1111122' 
CenGOOS,ioos:station:wmo:42067:1,2017-04-23T02:40Z,30.0430,-88.6490,5.0,8.1,190.8,9.4,'1111122,1111122,1111122' 
CenGOOS,ioos:station:wmo:42067:1,2017-04-23T05:40Z,30.0430,-88.6490,5.0,7.2,176.9,8.4,'1111122,1111122,1111122' 
CenGOOS,ioos:station:wmo:42067:1,2017-04-23T08:40Z,30.0430,-88.6490,5.0,3.0,308.0,4.3,'1111122,1111122,1111122' 
CenGOOS,ioos:station:wmo:42067:1,2017-04-23T11:40Z,30.0430,-88.6490,5.0,9.9,356.7,11.6,'1111122,1111122,1111122' 
CenGOOS,ioos:station:wmo:42067:1,2017-04-23T14:40Z,30.0430,-88.6490,5.0,6.4,344.5,8.3,'1111122,1111122,1111122' 
CenGOOS,ioos:station:wmo:42067:1,2017-04-23T17:40Z,30.0430,-88.6490,5.0,8.9,4.4,11.3,'1111122,1111122,1111122' 
CenGOOS,ioos:station:wmo:42067:1,2017-04-23T20:40Z,30.0430,-88.6490,5.0,7.2,313.8,9.1,'1111122,1111122,1111122' 
CenGOOS,ioos:station:wmo:42067:1,2017-04-27T14:40Z,30.0430,-88.6490,5.0,6.1,1.1,7.3,'1111122,1111122,1111122' 
CenGOOS,ioos:station:wmo:42067:1,2017-04-27T17:40Z,30.0430,-88.6490,5.0,0.3,150.8,0.9,'1111122,1111122,1111122' 
CenGOOS,ioos:station:wmo:42067:1,2017-04-27T23:40Z,30.0430,-88.6490,5.0,2.1,177.4,2.7,'1111122,1111122,1111122' 
CenGOOS,ioos:station:wmo:42067:1,2017-04-28T02:40Z,30.0430,-88.6490,5.0,5.7,150.9,6.8,'1111122,1111122,1111122' 
CenGOOS,ioos:station:wmo:42067:1,2017-04-28T05:40Z,30.0430,-88.6490,5.0,6.1,146.7,7.1,'1111122,1111122,1111122' 
CenGOOS,ioos:station:wmo:42067:1,2017-04-28T08:40Z,30.0430,-88.6490,5.0,7.0,137.7,8.1,'1111122,1111122,1111122' 
CenGOOS,ioos:station:wmo:42067:1,2017-04-28T11:40Z,30.0430,-88.6490,5.0,8.3,141.7,10.2,'1111122,1111122,1111122' 
CenGOOS,ioos:station:wmo:42067:1,2017-04-28T14:40Z,30.0430,-88.6490,5.0,6.4,136.3,7.6,'1111122,1111122,1111122' 
CenGOOS,ioos:station:wmo:42067:1,2017-04-28T17:40Z,30.0430,-88.6490,5.0,6.2,133.0,7.3,'1111122,1111122,1111122' 
CenGOOS,ioos:station:wmo:42067:1,2017-04-28T20:40Z,30.0430,-88.6490,5.0,6.1,128.8,7.2,'1111122,1111122,1111122' 
CenGOOS,ioos:station:wmo:42067:1,2017-04-28T23:40Z,30.0430,-88.6490,5.0,6.1,116.4,7.3,'1111122,1111122,1111122' 
CenGOOS,ioos:station:wmo:42067:1,2017-04-29T02:40Z,30.0430,-88.6490,5.0,8.5,117.0,10.7,'1111122,1111122,1111122' 
CenGOOS,ioos:station:wmo:42067:1,2017-04-29T05:40Z,30.0430,-88.6490,5.0,7.4,123.0,8.8,'1111122,1111122,1111122' 
CenGOOS,ioos:station:wmo:42067:1,2017-04-29T08:40Z,30.0430,-88.6490,5.0,7.5,129.7,8.8,'1111122,1111122,1111122' 
CenGOOS,ioos:station:wmo:42067:1,2017-04-29T11:40Z,30.0430,-88.6490,5.0,9.1,121.0,10.5,'1111122,1111122,1111122' 
CenGOOS,ioos:station:wmo:42067:1,2017-04-29T17:40Z,30.0430,-88.6490,5.0,8.7,127.5,10.5,'1111122,1111122,1111122' 
CenGOOS,ioos:station:wmo:42067:1,2017-04-29T23:40Z,30.0430,-88.6490,5.0,9.9,123.6,12.2,'1111122,1111122,1111122' 
CenGOOS,ioos:station:wmo:42067:1,2017-04-30T02:40Z,30.0430,-88.6490,5.0,11.9,132.7,15.3,'1111122,1111122,1111122' 
CenGOOS,ioos:station:wmo:42067:1,2017-04-30T05:40Z,30.0430,-88.6490,5.0,9.4,138.7,11.7,'1111122,1111122,1111122' 
CenGOOS,ioos:station:wmo:42067:1,2017-04-30T08:40Z,30.0430,-88.6490,5.0,11.0,139.9,13.7,'1111122,1111122,1111122' 
CenGOOS,ioos:station:wmo:42067:1,2017-04-30T11:40Z,30.0430,-88.6490,5.0,11.6,136.7,14.4,'1111122,1111122,1111122' 
CenGOOS,ioos:station:wmo:42067:1,2017-04-30T14:40Z,30.0430,-88.6490,5.0,9.8,142.0,12.0,'1111122,1111122,1111122' 
CenGOOS,ioos:station:wmo:42067:1,2017-04-30T17:40Z,30.0430,-88.6490,5.0,9.1,131.6,11.0,'1111122,1111122,1111122' 
CenGOOS,ioos:station:wmo:42067:1,2017-04-30T20:40Z,30.0430,-88.6490,5.0,7.1,131.0,8.8,'1111122,1111122,1111122' 
 
DISCLAIMER: The Gulf of Mexico Coastal and Ocean Observing (GCOOS) Data Portal aggregates data from the regional data providers for the convenience of all data users. Data published on this website should not be used for navigation or certain other uses as we cannot guarantee data accuracy or availability. The data and delivery services are provided 'as is' without warranty of any kind. Data Source: Gulf of Mexico Coastal Ocean Observing System Data Portal (http://data.gcoos.org/) 
